Theta_e
317 315 314 313 313 313 310 310 310 310 311 311 311 312 313 314 313 312 312 312 311 311 311 308 307 306 307 307 307 306 306 305 303 301 300 300 299 299 303 301 301 301 299 298 297 296 295 291 291 295 296 296 297 298 298 298 298 298 298 298 300 298 298
316 315 315 316 312 311 308 308 308 308 309 310 310 310 311 312 314 310 310 310 309 310 312 308 307 307 306 304 303 303 303 303 303 302 300 299 298 297 298 297 298 297 296 296 296 296 293 287 287 289 290 294 295 296 297 297 298 298 298 298 300 298 299
316 313 312 310 309 308 307 306 306 306 307 308 308 309 309 309 309 310 309 309 309 310 310 306 306 305 304 304 303 302 302 301 301 301 300 299 299 298 297 296 295 294 294 293 293 293 292 292 288 288 290 290 289 293 296 296 297 297 297 297 297 297 297
313 311 308 307 307 306 305 305 305 305 305 305 307 307 307 308 309 310 308 308 309 311 308 305 304 304 303 302 302 301 301 300 299 299 299 299 298 297 296 296 295 294 292 291 291 292 291 289 289 288 290 291 291 290 293 296 298 296 296 297 297 296 296
312 309 307 306 306 305 304 304 304 304 304 305 305 305 305 306 307 306 308 306 306 305 304 304 304 303 303 302 301 300 299 299 300 300 297 296 296 296 295 295 295 295 294 293 293 292 291 291 290 288 289 290 290 290 294 294 295 295 295 295 296 296 296
311 309 308 306 305 305 304 303 303 303 303 303 303 304 304 305 306 305 305 305 304 305 304 304 303 302 302 301 300 299 299 298 298 297 296 296 296 295 294 295 294 294 293 294 294 293 292 292 291 288 289 290 287 289 290 292 292 294 295 295 296 296 296
310 309 308 306 306 305 305 304 303 303 302 302 303 303 303 305 305 305 305 304 305 305 305 304 303 302 301 300 299 298 298 297 297 296 296 296 296 295 295 294 294 293 293 293 293 292 291 291 289 289 289 289 288 288 289 289 291 291 292 294 295 295 295
311 309 307 307 305 305 304 304 303 303 303 303 303 303 305 303 304 303 303 303 303 303 303 303 303 302 302 301 300 299 298 297 297 297 296 295 295 294 294 295 295 294 293 293 292 292 292 291 291 290 289 287 286 286 287 288 289 289 290 292 294 294 295
312 309 308 307 305 305 304 304 303 302 303 302 303 303 303 303 302 302 302 302 302 302 302 302 301 301 300 299 298 298 297 300 296 295 295 295 294 294 294 294 294 293 294 293 293 292 292 292 292 291 291 289 286 284 287 285 287 287 291 290 292 294 295
308 307 306 305 305 306 305 304 303 302 302 302 303 303 302 302 301 301 301 301 301 301 301 301 301 300 300 299 298 297 296 296 297 295 295 294 294 294 294 294 293 293 293 293 293 293 292 292 292 291 291 290 289 285 285 284 286 286 289 291 290 292 295
308 307 307 306 306 306 305 304 303 302 301 303 303 303 302 302 302 304 301 301 300 301 300 300 300 300 300 299 298 297 297 297 296 296 296 295 294 295 295 293 293 292 293 291 291 292 292 291 291 291 291 291 290 288 286 285 285 287 289 291 292 291 294
307 306 307 307 307 305 304 302 301 301 301 302 302 300 300 300 300 300 300 300 300 300 300 300 300 299 299 298 298 297 297 296 295 295 295 295 295 294 293 292 292 292 292 291 290 290 291 292 291 290 291 291 291 289 288 287 285 288 291 289 292 294 293
307 306 306 306 305 304 303 301 300 299 299 300 299 299 299 299 299 299 299 299 299 299 299 299 299 298 297 297 297 296 296 295 295 294 294 295 295 293 292 292 292 291 290 290 289 290 289 291 292 290 291 291 290 290 290 288 287 287 291 291 292 293 294
305 305 305 305 304 302 301 301 299 299 299 298 298 298 298 298 298 299 299 300 298 298 298 298 298 298 297 296 296 296 295 295 295 294 295 293 294 293 293 292 291 291 290 289 289 289 289 289 290 290 291 290 289 289 289 287 286 287 290 292 292 292 294
304 304 304 303 302 300 299 298 299 298 297 297 298 298 298 298 297 297 297 297 297 297 298 298 297 298 297 296 296 297 295 295 294 293 293 293 293 294 291 291 290 290 290 288 288 288 289 288 289 288 288 290 288 289 289 289 287 287 287 290 290 292 292
303 303 302 301 300 299 298 298 299 297 296 296 297 297 296 296 296 296 296 296 296 296 296 296 296 296 296 295 295 295 295 294 294 293 292 292 291 291 291 291 289 289 291 288 288 287 288 288 289 288 288 289 288 289 289 289 287 286 287 288 290 290 291
302 302 300 299 298 298 297 297 298 296 296 296 296 296 296 296 296 295 295 295 295 295 295 295 295 295 295 295 295 294 294 293 293 293 292 292 291 290 289 289 289 289 288 287 287 287 287 287 287 288 288 288 288 288 289 290 289 287 287 287 289 289 291
301 300 299 299 298 297 297 296 297 295 295 295 295 295 296 295 294 294 294 293 293 293 293 294 294 294 294 294 294 294 294 293 293 293 293 293 297 291 292 289 289 288 287 286 286 287 287 286 287 288 287 287 288 289 290 289 289 288 287 287 287 289 290
300 299 299 298 298 297 297 296 295 295 295 294 293 294 294 294 294 292 292 292 292 291 291 292 292 292 293 294 294 294 294 293 293 293 292 292 292 291 290 289 289 289 287 286 286 287 286 286 287 287 287 288 288 288 288 288 289 288 287 287 287 287 289
300 299 299 298 297 296 296 295 295 294 295 294 293 292 292 292 293 292 291 291 291 291 291 291 290 291 291 292 294 294 293 292 292 291 291 292 292 291 290 290 290 288 288 288 287 287 287 287 289 288 290 288 288 287 288 287 288 287 287 286 286 287 287
300 299 298 298 296 296 295 295 294 295 294 292 292 292 291 292 292 291 291 291 291 292 291 290 289 289 290 292 294 293 293 292 292 291 291 291 291 291 290 290 289 289 288 289 289 288 288 288 289 289 289 289 289 288 287 287 287 286 286 286 286 286 287
299 300 298 297 296 295 295 294 294 294 293 293 293 291 290 290 290 289 289 290 290 291 291 291 291 290 290 290 290 293 293 293 292 291 290 290 290 290 291 291 290 289 295 296 297 296 295 295 291 289 289 288 289 288 287 287 287 286 286 286 286 287 286
299 298 297 296 295 295 294 294 293 292 292 291 291 291 289 290 289 289 289 289 289 290 291 291 294 295 297 291 290 291 293 292 292 291 291 291 290 291 291 291 295 298 297 298 298 296 294 294 295 293 291 289 288 287 287 286 286 286 286 286 285 285 285
298 298 297 296 295 295 294 293 292 291 291 291 291 292 289 288 288 288 288 288 288 290 290 291 293 292 292 295 291 291 292 291 292 291 291 290 289 291 291 289 287 294 297 297 294 295 293 293 293 293 294 294 294 290 287 286 286 286 286 286 286 286 285
298 297 297 296 295 294 294 293 292 291 291 290 291 289 288 287 287 287 288 288 288 289 289 294 291 292 293 294 297 293 291 292 292 291 290 289 291 291 289 288 289 289 291 292 293 290 292 293 292 292 292 293 292 292 292 289 288 286 286 286 286 286 285
297 297 297 296 295 294 293 292 292 291 290 290 289 288 287 287 286 286 287 287 288 288 288 293 292 293 293 293 293 293 291 290 292 290 289 289 289 289 289 290 290 290 289 296 295 289 288 289 292 293 293 293 292 293 290 290 291 291 289 287 286 285 286
297 296 296 296 295 293 293 292 291 291 291 289 287 287 286 286 286 286 287 287 287 287 288 293 292 292 292 292 292 293 290 290 290 290 289 289 289 288 288 288 287 290 289 289 288 289 289 288 287 288 287 287 287 290 291 291 291 291 292 289 286 285 287
296 296 296 295 294 293 292 291 291 291 289 288 287 286 286 285 286 288 286 286 287 287 289 292 291 291 291 291 291 292 290 291 290 288 288 289 289 288 287 287 286 288 288 288 290 291 289 288 287 287 287 287 287 287 287 287 288 289 290 289 288 287 288
297 296 296 295 294 292 292 291 290 290 289 287 286 286 286 286 286 286 286 286 287 285 287 291 291 291 291 291 292 291 289 289 289 288 288 288 289 288 288 287 286 288 289 287 292 291 291 290 286 286 286 286 286 287 287 291 292 292 291 290 289 289 289
297 297 296 295 293 292 292 291 290 291 288 287 287 286 286 285 286 285 286 286 286 284 286 290 291 291 290 290 291 289 289 289 288 287 287 288 287 288 288 291 291 288 288 287 292 290 290 292 286 286 285 285 286 286 286 288 291 291 291 291 291 290 290
298 297 296 295 294 293 292 292 291 291 289 287 286 286 286 286 284 286 286 285 287 287 286 290 291 291 291 291 290 287 287 287 286 286 286 286 286 286 287 296 296 289 287 288 291 289 290 290 286 285 285 285 284 285 286 287 288 289 291 291 290 290 290
298 297 296 295 294 293 292 292 292 291 289 288 288 287 289 286 285 285 284 285 295 288 286 289 291 290 291 291 290 286 287 286 286 284 284 285 285 286 286 290 293 292 290 291 289 289 289 290 285 284 284 283 284 284 285 286 286 286 287 286 286 288 288
299 298 296 295 294 294 294 293 292 291 290 289 289 288 289 288 287 285 286 289 291 288 288 287 290 290 291 291 291 288 286 286 286 284 284 288 287 285 285 286 290 290 289 289 289 289 289 290 286 285 284 283 284 284 286 286 288 288 286 286 285 286 286
298 298 297 295 295 294 294 293 292 291 290 290 289 288 289 288 288 286 286 288 288 287 289 287 290 290 291 291 291 290 284 283 282 282 282 286 283 284 285 286 286 290 289 289 289 289 289 290 290 288 284 284 284 288 288 285 287 290 285 286 286 286 286
299 298 297 296 294 293 292 293 292 291 291 290 290 290 289 290 289 287 287 289 289 287 291 295 286 290 290 290 290 290 286 286 285 284 283 283 282 283 284 284 286 289 289 289 289 289 289 289 289 288 287 288 288 288 288 289 286 285 284 285 284 285 285
298 298 297 296 294 293 292 292 292 292 291 291 291 290 289 289 287 287 287 288 289 289 287 292 293 289 290 290 290 290 290 287 289 289 283 286 284 284 284 285 287 291 289 289 289 289 289 289 290 286 288 288 288 288 288 285 286 284 284 284 284 283 284
298 297 297 296 295 293 292 293 293 293 293 292 292 291 290 289 287 287 289 289 291 290 289 288 292 292 289 289 289 289 289 289 289 286 286 285 284 283 285 284 288 289 289 289 289 289 289 289 287 288 288 288 288 288 286 285 283 283 284 283 283 283 283
Wind_Speed
5 6 5 4 3 3 6 5 5 5 5 5 5 6 6 6 6 7 7 7 7 6 7 7 7 5 6 6 6 7 8 8 8 9 8 8 7 4 5 8 7 6 7 7 4 1 1 3 4 1 3 8 5 6 8 8 8 9 9 9 8 10 9
6 6 5 4 5 4 6 5 5 5 5 5 5 6 6 6 6 6 6 7 7 7 6 7 7 7 8 8 9 10 10 9 9 7 9 8 9 7 6 7 5 6 5 5 5 3 5 4 2 5 8 5 3 4 7 7 7 7 9 9 7 11 9
6 6 4 5 5 4 6 5 4 5 5 5 5 5 6 5 6 6 6 7 6 6 6 7 8 9 8 9 10 9 10 10 9 10 10 8 8 8 8 6 8 6 6 7 9 9 4 6 3 7 9 10 8 7 6 8 8 5 8 8 6 9 9
8 8 7 6 5 5 6 4 4 4 3 5 5 5 5 5 6 6 6 6 6 6 7 8 8 8 8 9 9 11 11 11 9 10 11 10 8 9 9 8 8 8 7 7 6 7 6 5 7 7 8 6 6 6 5 7 6 5 7 8 7 8 10
9 7 8 7 6 6 5 5 3 4 3 4 5 6 5 5 5 6 6 7 7 7 8 7 8 8 8 9 9 9 9 9 9 10 9 10 9 8 8 7 8 7 7 7 5 6 6 5 3 5 7 7 3 1 3 5 3 6 6 9 8 7 9
7 8 8 7 6 7 6 5 5 5 3 5 5 5 3 4 5 6 7 7 7 7 8 8 8 9 9 9 9 10 10 10 9 9 9 9 8 8 7 6 7 7 7 5 5 5 5 3 4 7 5 3 3 5 2 3 4 4 5 8 8 6 8
8 8 7 8 6 5 6 5 5 5 5 4 4 4 3 4 5 5 6 7 7 8 9 9 9 9 9 9 9 10 9 8 9 9 9 8 8 7 5 7 7 7 6 6 5 6 6 6 6 6 7 4 2 4 2 3 3 4 2 6 6 5 8
8 7 6 6 7 7 5 6 5 4 5 4 5 3 3 5 5 6 7 8 7 8 8 9 9 9 9 9 9 9 9 8 9 9 8 8 8 7 7 6 6 6 6 6 6 6 5 5 5 5 6 11 7 1 7 3 3 4 5 5 6 5 7
8 7 6 5 5 6 7 7 6 4 5 4 3 4 4 5 7 7 8 8 8 8 8 9 9 8 8 9 9 9 10 6 8 9 7 7 7 7 6 5 7 7 6 6 6 6 6 5 5 5 6 5 7 9 8 6 5 3 3 8 5 2 8
9 9 8 7 7 5 7 7 6 5 4 4 5 4 5 5 6 7 8 8 8 8 8 9 9 9 8 9 9 9 9 6 7 7 6 7 6 5 6 7 7 7 6 5 6 6 6 5 5 5 5 5 4 3 7 7 8 7 5 7 7 6 7
8 8 8 9 7 7 7 7 6 6 4 4 4 4 5 6 7 8 8 8 8 8 8 8 9 9 8 8 8 7 6 6 7 6 6 6 6 5 6 6 6 7 6 6 6 5 5 5 5 6 5 5 4 5 3 5 8 3 8 9 6 8 11
7 7 6 7 7 8 8 7 6 5 5 4 5 5 6 6 7 7 7 7 8 8 8 8 8 8 8 8 6 7 6 6 6 6 4 5 4 6 6 7 6 6 5 6 5 5 5 5 6 5 5 5 5 3 3 3 6 4 3 10 10 10 11
7 7 6 7 7 8 8 8 6 6 5 5 5 5 6 6 7 7 7 8 8 7 8 7 8 8 7 7 6 6 5 6 6 6 4 4 5 6 6 7 5 5 4 4 5 5 5 5 4 5 5 5 3 3 3 2 4 10 8 7 10 11 12
7 6 6 6 8 8 7 6 6 6 5 5 5 7 7 7 7 7 7 7 7 7 8 7 6 7 7 7 6 6 5 6 6 5 5 5 5 5 6 5 4 3 3 4 4 5 5 5 4 5 4 5 5 3 2 3 4 8 8 5 7 8 10
7 7 8 7 8 8 7 7 6 6 7 4 6 7 7 6 6 8 8 7 7 7 7 7 6 7 7 7 6 5 6 6 5 5 5 5 4 4 4 4 3 3 3 4 4 4 4 5 4 5 5 5 5 6 2 1 3 5 10 9 8 8 9
7 8 9 7 8 8 7 6 6 8 6 5 5 6 6 7 7 8 8 7 7 7 7 6 5 6 6 7 7 5 5 5 6 6 5 4 4 3 4 3 3 3 3 4 4 4 3 4 4 4 5 3 4 5 5 2 2 5 8 10 9 10 9
7 7 8 7 9 7 7 6 6 8 6 5 7 5 6 7 7 8 8 7 7 6 6 6 5 5 5 6 7 6 6 5 5 5 4 4 4 3 4 4 3 3 3 4 4 5 4 4 4 4 4 5 4 6 5 5 3 3 4 9 9 9 9
7 7 8 7 9 8 7 7 6 7 7 6 5 6 5 5 7 7 8 7 6 6 5 5 6 5 4 4 5 6 6 5 5 4 4 4 4 3 3 4 2 2 3 4 4 4 5 5 4 4 5 5 5 5 6 5 6 4 6 9 10 8 9
8 8 8 8 8 8 7 6 6 5 7 8 6 5 6 5 6 7 6 6 6 5 4 5 5 5 4 4 4 5 5 5 4 4 4 4 4 3 4 3 2 1 3 3 3 4 4 5 4 4 5 6 6 6 6 7 6 7 6 8 9 11 8
8 8 8 8 7 7 7 6 6 6 5 7 7 6 5 6 4 6 5 5 5 5 5 5 5 4 4 4 4 5 5 5 4 4 3 4 3 3 3 3 2 1 1 1 3 4 4 5 5 5 4 5 5 5 7 6 7 7 7 7 7 7 9
8 8 7 8 7 7 7 6 6 5 6 7 6 5 5 6 4 5 5 5 4 4 5 5 4 4 4 4 5 4 4 4 4 3 3 3 3 3 3 2 2 1 1 1 2 3 3 5 5 6 6 4 5 6 6 6 6 7 7 7 7 9 7
7 8 8 8 8 7 7 7 6 6 6 6 5 5 4 5 6 6 5 4 4 4 5 4 3 4 5 4 4 4 4 4 4 4 3 4 3 2 1 2 2 2 2 4 5 6 6 5 3 5 7 4 5 5 6 6 6 7 7 7 8 7 8
7 8 9 9 8 8 7 7 7 7 6 6 5 5 5 4 5 5 6 4 4 4 4 2 3 4 4 4 4 3 4 4 4 4 4 4 3 2 1 0 2 3 3 5 6 7 10 11 10 5 4 4 4 5 5 6 7 6 6 8 8 9 10
8 9 8 8 8 8 8 7 7 7 7 6 6 4 4 5 4 4 5 5 5 4 3 2 3 4 4 6 4 4 4 3 3 3 4 4 3 1 0 2 3 4 4 5 4 7 11 11 11 11 12 11 8 4 4 6 6 6 7 7 8 8 8
9 9 9 9 9 8 8 8 7 7 7 6 5 4 5 4 4 4 4 5 4 4 3 3 4 5 4 5 6 5 3 4 4 2 1 1 2 2 1 2 3 3 3 4 4 4 8 11 11 11 11 11 11 12 9 4 5 7 7 7 9 9 8
9 9 9 9 9 8 8 8 7 7 7 5 5 5 4 4 4 3 5 5 4 3 3 4 5 6 7 8 9 7 4 3 5 3 2 2 2 2 1 2 3 4 3 7 5 4 4 7 9 11 10 9 10 11 12 12 10 6 5 6 6 10 9
9 9 9 9 9 9 8 8 7 6 6 5 6 5 4 4 4 4 4 5 4 3 3 4 6 8 10 9 9 8 4 5 4 3 2 2 3 3 2 2 3 6 6 5 4 4 5 5 6 6 6 6 6 8 11 11 11 11 8 5 6 8 11
10 9 10 10 9 9 8 7 7 6 6 7 7 6 6 5 4 4 4 4 5 4 2 3 6 9 10 10 9 7 5 5 4 3 2 1 2 2 2 2 3 4 5 6 5 5 5 6 5 6 6 7 6 6 6 7 7 7 7 6 6 8 10
10 10 10 10 10 9 8 9 8 6 6 5 4 4 3 3 5 5 4 4 6 4 2 3 6 9 9 8 8 5 5 5 4 4 3 2 1 1 1 3 3 4 5 6 8 10 8 5 4 4 6 7 8 7 6 6 10 11 9 8 7 8 9
11 11 10 10 10 9 9 8 7 6 7 6 5 5 4 4 4 5 4 4 6 4 3 2 6 8 8 8 6 5 4 5 4 4 2 1 1 1 2 2 2 3 5 6 9 10 10 7 4 5 5 6 7 7 8 7 11 13 13 14 14 15 16
11 11 10 11 10 9 8 7 7 6 8 7 6 5 4 4 3 4 5 5 5 6 3 3 6 8 8 7 6 5 4 5 3 2 1 1 2 2 3 4 5 3 4 6 10 10 8 5 4 4 5 6 7 7 8 8 7 8 12 13 14 15 16
11 11 10 10 10 10 9 9 7 6 6 6 6 5 4 5 4 2 3 4 6 6 4 3 5 7 7 7 5 3 5 5 4 2 1 1 2 2 3 3 5 5 5 7 11 10 8 5 4 4 4 4 6 8 8 8 8 9 10 10 11 11 12
10 11 10 9 8 9 7 7 8 7 6 6 6 5 4 5 5 3 2 2 3 4 4 3 2 4 4 5 6 4 3 5 4 1 0 0 2 4 4 5 5 7 10 11 11 10 9 6 4 3 3 4 6 8 8 7 8 8 8 8 9 9 10
11 9 9 9 8 8 8 8 8 7 7 6 5 5 4 4 4 3 2 1 2 2 2 3 2 3 4 4 5 5 3 3 3 2 1 0 0 2 6 6 6 7 10 12 11 9 8 8 6 3 3 4 3 6 8 6 9 10 7 8 8 9 9
10 9 8 9 9 8 6 8 8 7 7 6 6 6 4 4 4 3 2 1 1 3 2 2 2 2 3 4 5 5 4 2 3 3 1 0 1 2 3 5 6 8 12 11 10 8 7 7 7 3 5 7 9 11 7 5 6 6 7 7 8 8 9
10 8 9 9 10 9 7 8 7 8 8 7 7 7 5 4 4 4 3 2 2 2 2 0 2 1 3 5 5 5 5 3 4 2 2 0 1 3 3 4 6 9 11 11 9 7 6 6 5 4 8 9 9 10 7 6 6 7 7 7 8 9 9
10 9 10 10 10 10 8 8 8 8 8 8 7 7 6 5 4 4 5 5 4 3 3 1 1 3 2 4 5 6 6 5 5 4 2 1 2 3 5 5 6 11 11 10 8 6 5 4 3 7 8 9 9 7 5 6 6 7 6 7 8 9 9
Wind_Direction
123 124 119 106 90 86 72 53 50 41 34 36 47 46 50 61 68 66 67 70 72 68 70 66 68 63 66 59 60 61 63 57 59 70 64 39 59 17 24 44 44 50 49 52 31 40 240 285 310 1 38 0 356 18 12 7 11 18 13 11 20 24 16
115 116 115 102 92 80 80 55 58 47 45 41 46 58 55 64 72 79 75 76 76 73 74 74 69 69 70 69 61 57 59 57 57 64 66 53 50 36 27 22 34 38 41 56 47 33 52 352 286 14 345 343 339 22 15 2 7 15 15 6 14 21 10
118 103 98 100 91 85 81 65 53 54 49 53 49 57 68 67 75 76 78 78 80 81 77 79 79 73 69 68 64 66 64 66 55 59 65 61 58 51 49 39 40 12 32 24 26 17 27 68 1 329 345 349 357 334 354 0 359 9 14 7 7 17 8
131 128 120 102 98 82 85 71 64 53 48 58 62 58 64 70 77 80 82 81 79 80 79 78 77 78 73 72 69 67 64 67 66 66 67 61 62 58 51 48 52 49 55 49 17 18 33 7 348 342 338 353 323 329 354 348 348 0 13 8 3 14 4
137 133 126 123 114 109 107 102 83 69 54 57 59 67 62 72 80 79 79 81 82 82 80 83 80 78 76 74 71 71 69 67 68 70 68 68 64 67 60 53 56 55 51 47 29 30 28 19 4 314 336 330 323 304 320 339 328 352 19 10 0 9 358
124 124 124 122 130 128 131 122 113 104 89 75 65 76 68 77 86 83 81 84 86 83 86 83 82 80 80 79 77 74 72 70 70 73 74 70 71 70 70 61 61 55 49 37 38 33 21 6 16 355 333 310 287 304 308 5 351 332 21 9 357 357 355
124 128 131 133 140 134 132 128 123 121 107 104 94 91 99 87 77 85 90 88 88 89 87 86 85 84 83 82 79 78 75 74 74 76 78 77 73 70 70 70 59 54 48 36 34 35 28 21 18 14 328 320 262 299 307 344 348 359 343 12 351 342 350
126 129 133 138 139 135 130 120 116 111 108 108 102 111 97 93 96 89 89 88 86 85 85 85 85 83 84 84 80 80 76 75 77 78 76 77 73 69 63 65 64 52 43 34 32 32 28 34 30 2 11 1 348 340 358 332 351 26 345 335 345 333 351
128 125 124 128 130 134 132 125 121 114 110 105 103 101 90 97 92 89 86 87 88 86 87 88 88 89 88 86 82 80 81 77 82 78 77 75 71 67 68 62 60 49 38 32 30 26 28 23 27 23 25 47 25 340 337 332 360 313 20 348 325 338 345
133 137 138 138 137 134 126 118 115 118 107 104 107 102 100 90 89 91 91 88 86 87 86 87 91 92 90 90 90 90 89 84 86 84 79 76 73 71 67 60 63 55 39 32 30 26 20 19 23 25 40 48 31 24 346 331 329 337 328 1 339 324 337
132 132 135 137 137 129 116 108 110 104 103 104 104 102 95 89 85 87 90 89 88 86 89 91 94 95 94 90 92 93 98 94 89 84 78 81 74 72 66 59 55 53 35 37 32 20 21 21 20 18 20 17 38 27 347 327 311 308 317 332 333 319 328
125 127 131 131 131 122 114 112 108 111 101 99 99 97 91 88 88 83 87 88 86 87 88 93 95 95 97 99 97 99 94 92 90 84 80 82 75 72 66 62 52 50 37 34 27 21 20 18 11 12 5 8 6 23 340 313 315 282 350 318 320 316 316
126 129 131 132 125 117 114 114 115 106 111 102 96 93 91 92 92 90 85 88 86 85 88 91 94 96 95 99 103 97 93 93 91 90 77 66 75 69 68 63 50 49 34 37 25 19 13 9 9 2 357 347 345 350 327 297 275 288 309 301 302 310 314
124 121 118 120 114 109 108 109 109 117 105 98 103 93 93 92 90 90 88 84 87 91 96 95 95 99 98 98 94 98 98 95 95 89 84 68 59 68 71 68 55 38 33 43 20 11 8 1 0 359 346 348 337 329 322 291 282 293 298 288 297 302 310
124 122 117 114 109 108 108 111 115 105 99 100 101 99 97 95 93 92 89 86 87 89 91 96 100 99 102 99 97 103 104 99 92 84 81 76 63 67 77 79 49 36 29 37 14 10 0 354 358 352 348 341 322 315 296 245 277 289 304 313 311 309 309
124 121 116 113 110 110 109 110 111 106 103 99 89 98 102 98 95 92 89 87 89 88 90 93 93 102 102 104 106 106 110 108 105 99 90 86 88 87 75 75 53 37 19 26 7 356 355 350 343 346 333 326 318 308 308 273 271 291 299 307 307 312 312
121 119 113 115 112 110 109 108 110 105 107 102 97 88 93 97 94 93 92 89 89 93 92 92 88 88 103 109 109 111 109 106 105 107 107 108 103 97 101 75 45 37 25 30 3 353 347 340 340 336 329 323 315 310 305 312 292 262 290 305 314 309 310
122 115 112 113 112 110 111 109 108 113 108 98 97 97 83 88 92 91 96 99 96 91 95 98 94 86 78 93 110 116 116 115 116 118 125 132 129 115 95 96 95 51 39 32 358 355 335 340 332 331 325 315 317 309 311 310 304 296 293 300 301 300 302
123 116 114 114 114 113 111 109 107 102 109 103 89 83 92 81 96 96 95 96 96 96 92 91 90 92 91 96 102 111 117 119 121 124 129 130 130 128 118 124 117 86 44 30 347 327 330 329 325 328 324 320 318 316 313 312 311 308 298 292 296 307 312
124 117 117 117 115 111 110 111 109 106 101 103 101 96 88 91 83 97 96 95 95 101 92 84 88 87 90 96 107 111 110 111 114 123 136 136 129 121 122 137 152 140 31 334 330 327 323 329 326 321 314 309 309 314 313 308 312 305 305 300 302 293 306
120 118 118 117 113 112 110 107 104 103 100 97 98 102 106 102 95 90 91 93 94 97 95 88 84 88 89 105 114 114 121 125 125 120 116 98 98 115 149 170 169 208 237 261 283 308 314 313 323 320 314 311 310 313 308 308 306 310 305 312 303 317 312
119 120 121 118 116 114 111 110 108 105 102 99 94 93 94 103 106 93 80 85 85 79 85 84 91 106 107 93 115 128 131 132 136 128 103 81 77 93 144 192 212 235 260 350 331 326 320 316 298 301 310 314 308 304 305 301 312 304 311 304 315 310 318
124 123 125 124 123 120 117 116 113 108 104 101 100 98 95 91 94 104 103 87 78 75 71 65 60 71 90 122 118 115 114 139 146 141 131 104 75 76 74 240 260 261 329 306 316 328 334 333 327 309 283 295 289 301 300 315 314 314 308 322 321 326 324
129 130 129 125 125 123 121 119 114 112 109 106 104 104 99 97 94 95 100 100 85 73 57 50 58 80 89 115 111 102 116 135 144 147 149 133 129 134 272 311 303 300 319 329 311 331 334 330 326 325 326 322 323 315 317 320 319 311 324 317 319 320 324
131 131 131 131 129 126 122 120 118 119 116 110 105 100 96 100 103 103 97 87 82 73 60 38 75 86 102 109 113 118 122 127 135 144 60 77 134 161 245 306 300 306 316 312 333 333 326 323 323 324 324 324 326 333 337 329 312 325 327 327 324 323 320
134 135 136 134 130 129 126 122 124 125 123 122 112 108 117 112 110 105 100 96 81 64 65 47 85 97 101 100 101 98 86 100 119 116 110 110 155 182 235 299 314 331 325 345 336 320 322 319 323 323 321 323 333 335 332 324 317 304 299 307 318 317 320
138 139 138 135 133 132 131 132 132 129 123 117 118 118 120 122 123 112 112 107 100 82 71 64 106 106 98 96 96 96 93 92 94 102 116 151 169 200 227 246 327 336 333 339 318 323 328 320 322 324 329 334 331 324 325 322 320 323 325 316 311 309 308
138 141 141 138 136 135 133 131 133 136 135 138 140 145 147 139 134 122 116 114 105 83 59 80 104 98 99 99 95 94 92 89 88 83 71 76 186 212 237 257 298 314 322 322 308 338 333 324 320 321 330 333 326 322 316 319 328 329 325 324 312 301 301
143 144 143 142 140 139 139 142 142 141 128 121 117 119 125 124 127 125 121 116 104 91 60 80 102 101 102 102 99 94 93 92 92 85 65 47 30 294 265 265 286 314 316 309 314 336 339 316 315 333 339 329 330 326 323 311 323 323 322 318 314 308 305
147 148 147 145 145 144 143 142 139 134 127 135 138 148 158 144 141 132 128 120 111 110 101 103 103 100 103 112 104 99 100 93 86 84 65 5 337 346 326 296 292 312 308 308 317 336 332 330 340 347 339 333 323 329 324 332 331 326 325 327 323 320 318
150 151 151 151 150 147 145 140 144 145 143 146 150 163 150 130 136 138 131 134 134 127 132 135 120 107 104 104 115 124 121 111 92 69 28 345 338 329 298 333 336 315 310 308 322 328 344 339 357 340 345 337 335 333 333 334 331 326 330 327 328 326 320
152 153 154 153 150 149 153 154 148 140 142 142 152 152 139 131 129 120 134 144 141 128 141 136 115 110 110 111 112 113 118 112 101 58 24 338 304 301 325 338 318 313 308 317 323 335 351 344 345 346 331 334 339 339 328 329 326 332 336 338 335 334 332
155 155 152 147 149 149 146 140 145 146 148 147 150 152 138 136 139 156 169 156 137 145 139 147 122 123 120 122 125 119 121 110 122 132 360 295 343 335 340 323 323 326 328 328 330 334 341 345 347 335 348 356 342 332 323 324 327 334 327 332 322 330 323
155 153 149 148 146 144 148 148 146 148 149 150 146 147 147 146 140 156 177 178 154 176 165 155 172 162 157 153 147 132 126 127 155 144 143 340 322 319 319 318 314 312 318 324 323 333 336 345 352 351 359 343 308 303 321 333 330 334 333 330 332 327 328
151 148 145 141 143 144 147 146 150 151 148 152 159 163 160 153 153 165 190 193 201 218 247 174 193 199 187 170 166 151 132 183 170 137 121 328 320 299 283 295 304 305 313 314 316 330 337 346 350 8 337 324 330 343 342 325 321 334 334 338 331 330 332
152 150 151 152 146 148 149 148 151 153 154 160 164 167 165 160 154 161 181 221 240 244 253 255 179 205 209 188 177 177 178 174 208 173 139 246 270 278 282 285 281 288 302 309 314 327 346 343 354 340 330 344 342 341 340 344 341 343 343 336 336 336 331
153 154 154 154 152 148 154 155 156 162 163 164 168 167 173 163 160 163 180 211 224 244 240 227 241 222 220 205 182 180 183 198 192 201 177 196 239 255 287 285 290 301 306 304 309 342 341 342 332 329 338 342 346 347 346 350 352 347 337 338 342 334 333